CEST,Max TemperatureF,Mean TemperatureF,Min TemperatureF,Max Dew PointF,MeanDew PointF,Min DewpointF,Max Humidity, Mean Humidity, Min Humidity, Max Sea Level PressureIn, Mean Sea Level PressureIn, Min Sea Level PressureIn, Max VisibilityMiles, Mean VisibilityMiles, Min VisibilityMiles, Max Wind SpeedMPH, Mean Wind SpeedMPH, Max Gust SpeedMPH,PrecipitationIn, CloudCover, Events, WindDirDegrees
2012-9-1,72,66,59,61,59,54,94,81,50,30.18,30.13,30.09,14,6,3,12,4,,0.12,4,Rain,57
2012-9-2,74,64,53,61,56,53,100,78,44,30.15,30.12,30.06,19,7,4,16,3,23,0.04,2,Rain-Thunderstorm,24
2012-9-3,80,68,56,64,55,48,94,65,26,30.14,30.05,30.01,19,7,6,20,4,30,0.00,1,,331
2012-9-4,81,71,61,66,60,54,88,66,43,30.06,30.03,30.01,19,7,6,15,5,,0.01,2,Rain,244
2012-9-5,83,71,59,64,60,54,100,68,26,30.09,30.04,30.01,12,7,6,14,3,,0.00,1,,238
2012-9-6,85,72,60,64,60,52,94,64,22,30.15,30.11,30.06,16,8,6,14,3,,0.00,1,,207
2012-9-7,87,74,62,68,64,57,94,70,30,30.18,30.15,30.12,16,7,6,15,3,,0.00,2,,180
2012-9-8,83,74,64,70,66,62,100,75,42,30.15,30.10,30.04,16,6,3,13,4,,0.00,1,,85
2012-9-9,82,72,63,70,67,63,100,77,46,30.09,30.06,30.04,9,6,5,12,4,,0.00,1,,213
2012-9-10,83,73,63,70,66,62,100,77,47,30.09,30.04,30.01,16,6,5,17,4,,0.00,1,,193
2012-9-11,87,76,64,70,66,60,94,72,41,30.06,30.03,30.01,19,7,6,16,4,13,0.00,1,,78
2012-9-12,83,73,63,72,68,61,100,79,47,30.04,29.99,29.89,12,6,6,17,4,,0.12,1,,245
2012-9-13,77,70,64,70,60,50,94,68,32,29.98,29.95,29.92,16,7,4,20,10,20,0.00,3,Rain-Thunderstorm,26
2012-9-14,80,71,62,61,58,52,88,65,29,29.98,29.96,29.92,19,7,6,18,6,,0.00,2,,345
2012-9-15,82,68,55,68,61,53,88,73,44,30.01,29.98,29.95,19,8,3,15,3,,0.00,1,Fog,222
2012-9-16,82,70,58,68,63,55,94,74,38,30.01,29.98,29.95,19,9,6,10,3,,0.00,1,,221
2012-9-17,83,71,59,66,62,54,94,70,28,30.01,29.97,29.95,19,7,1,14,3,,0.00,1,Fog,234
2012-9-18,84,72,61,72,64,55,88,75,45,29.99,29.94,29.89,19,7,2,13,3,,0.00,2,Fog,228
2012-9-19,79,72,65,68,63,56,94,72,42,30.09,29.99,29.92,16,7,6,25,8,31,0.00,1,Rain,60
2012-9-20,82,72,61,66,60,53,82,65,33,30.12,30.08,30.06,19,8,6,15,7,,0.00,1,,62
2012-9-21,87,74,62,68,61,52,88,65,24,30.12,30.04,29.98,19,8,6,14,5,18,0.00,1,,83
2012-9-22,86,76,65,70,67,63,94,73,43,29.98,29.93,29.89,16,7,6,14,7,16,0.00,1,Fog,53
2012-9-23,82,74,67,72,69,64,94,82,53,29.99,29.94,29.86,12,6,2,12,3,,0.00,3,Fog,186
2012-9-24,83,77,71,73,63,53,94,61,33,29.95,29.89,29.80,19,6,3,20,7,,0.00,1,,247
2012-9-25,80,77,74,70,61,52,83,60,39,29.89,29.78,29.74,16,7,6,22,14,26,0.00,1,,238
2012-9-26,80,76,71,66,62,55,78,62,44,29.86,29.73,29.68,12,6,5,21,14,,0.04,1,Rain,235
2012-9-27,71,67,63,66,62,56,88,80,58,29.98,29.94,29.86,16,7,5,13,6,,0.16,1,Rain,60
2012-9-28,75,70,66,68,61,53,88,70,46,29.99,29.86,29.74,19,7,6,34,17,48,0.04,2,Rain-Thunderstorm,59
2012-9-29,76,71,66,68,63,57,94,74,43,29.92,29.86,29.83,19,6,2,18,8,21,0.16,2,Rain-Thunderstorm,233
2012-9-30,73,68,62,63,61,58,94,79,61,30.09,29.98,29.92,19,7,6,18,6,26,0.00,2,,49